Showing default

SHIYAN 27A, 63599

Orbit data source: Space-Track

SHIYAN 27A, 63599 is a payload satellite owned by CAST (CN) in SSO that was launched on Fri, 18 Apr 2025 UTC via a CHANG ZHENG 6A launch vehicle from the Taiyaun Space Center, China (TSC). Payload-class satellites include a variety of spacecraft equipped with specific instruments for various scientific and technological missions. These include communications satellites like Starlink; space stations such as the ISS; scientific satellites like the Hubble; Earth observation satellites from companies like Planet Labs, Umbra, and HawkEye 360; GPS; miniature CubeSats for education and research; and military/defense satellites.

Loading next visibility...
Identifier
63599, 2025-078A
Orbit
SSO
Country
Flag of CNCN / PRC
Related business
Manufacturer
CAST
Mission
Operational Defense Radar Imaging
Bus & Motor
SW27, Unknown motor
Mass
300 kg wet, ~300 kg dry
Launch date (UTC)
2025-04-18 (1 year ago)
Launch vehicle
CHANG ZHENG 6A
Launch site
Taiyaun Space Center, China (TSC)
Object type
Payload
Rocket body
Debris
Shape & HBR
Box + 1 Pan, 2.4 m
Radar Cross Section
13.200 m², Large (>1 m²)

Expand to show TLE details & history
Last TLE update: 6 hours ago

TLE from 6 hours ago
0 SHIYAN 27A
1 63599U 25078A   26123.20502457 -.00000020  00000-0  34138-4 0  9999
2 63599  99.6920 131.1080 0001177  96.9342 263.1931 13.57246169 51434
Epoch: 2026-05-03T04:55Z
TLE epoch observation values (Epoch: 2026-05-03T04:55:14.122Z)
Latitude
0.00003°
Longitude
-163.81277°
Altitude
1,048.616 km
Speed
7.328 km/s
True Right ascension
08h 44m 25s
True Declination
0° 00' 00"
Sunlit
Object was in daylight at epoch
Visualization orbit readout
Latitude
Unknown
Longitude
Unknown
Altitude
Unknown
Speed
Unknown
Apparent Right ascension
Unknown
Apparent Declination
Unknown
Sunlit
N/A
Visualization observer readout
Local Sidereal Time
18:17:51
Azimuth
Unknown
Elevation
Unknown
Doppler factor
Unknown
Orbital elements
Apogee altitude
1,043.882 km
Perigee altitude
1,042.135 km
Semi-major axis
7,421.145 km
Eccentricity
0.00012
Inclination
99.692°
RAAN
131.108°
Arg. of periapsis
96.9342°
True anomaly
263.17971°
Mean anomaly
263.1931°
Eccentric anomaly
263.1864°
Mean motion
3.39498 °/min
Orbital period
106.04 mins
BSTAR
0.000034138
Loading maneuver chart data...
Computing Atmospheric mass density...
Loading historical data...
Loading historical data...
Loading historical data...
Loading historical data...
Loading historical data...
Loading historical data...
Loading historical data...

Documentation

Showing up to 5 results
|